Weather History for Grand Marais, MN

Change the Weather History Date:

Thursday, December 29, 2011

  Actual Average (KCKC) Record (KCKC)
Temperature  
Mean Temperature 26 °F -  
Max Temperature 30 °F 15 °F 33 °F (1999)
Min Temperature 19 °F 1 °F -20 °F (2013)
Degree Days  
Heating Degree Days 40    
Moisture  
Dew Point 22 °F    
Average Humidity 81    
Maximum Humidity 92    
Minimum Humidity 74    
Precipitation  
Precipitation 0.24 in - - ()
Sea Level Pressure  
Sea Level Pressure 29.63 in    
Wind  
Wind Speed 5 mph (NE)    
Max Wind Speed 13 mph    
Max Gust Speed 20 mph    
Averages and records for this station are not official NWS values.
T = Trace of Precipitation, MM = Missing Value Source: NWS Daily Summary

Daily Weather History Graph

Daily Weather History Graph

Search for Another Location

Airport:

Trip Planner

Search our weather history database for the weather conditions in past years. The results will help you decide how hot, cold, wet, or windy it might be!

Date:

Astronomy

Dec. 29, 2011 Rise Set
Actual Time 7:49 AM CST 4:16 PM CST
Civil Twilight 7:13 AM CST 4:52 PM CST
Nautical Twilight 6:34 AM CST 5:32 PM CST
Astronomical Twilight 5:56 AM CST 6:09 PM CST
Moon 10:20 AM CST (12/29) 10:19 PM CST (12/29)
Length of Visible Light 9h 39m
Length of Day
8h 26m
Waxing Crescent, 27% of the Moon is Illuminated
Dec 29
Waxing Crescent
Jan 1
First Quarter
Jan 9
Full
Jan 16
Last Quarter
Jan 23
New

Hourly Weather History & Observations

Time (CST) Temp. Windchill Dew Point Humidity Pressure Visibility Wind Dir Wind Speed Gust Speed Precip Events Conditions
12:56 AM 28.0 °F 20.0 °F 25.0 °F 88% 29.64 in - SSE 8.1 mph - 0.02 in   Unknown
1:56 AM 28.0 °F 20.0 °F 25.0 °F 88% 29.62 in - SSE 8.1 mph - 0.02 in   Unknown
2:56 AM 28.0 °F 21.7 °F 25.0 °F 88% 29.61 in - ESE 5.8 mph - 0.03 in   Unknown
3:56 AM 28.0 °F - 26.1 °F 92% 29.58 in - Calm Calm - 0.04 in   Unknown
4:56 AM 28.9 °F 23.9 °F 27.0 °F 92% 29.57 in - ESE 4.6 mph - 0.06 in   Unknown
5:56 AM 28.0 °F 22.8 °F 25.0 °F 88% 29.57 in - NE 4.6 mph - 0.03 in   Unknown
6:56 AM 28.0 °F 22.8 °F 25.0 °F 88% 29.57 in - NNE 4.6 mph - 0.02 in   Unknown
7:56 AM 28.0 °F 24.2 °F 24.1 °F 85% 29.58 in - North 3.5 mph - 0.01 in   Unknown
8:56 AM 28.0 °F - 24.1 °F 85% 29.59 in - Calm Calm - 0.01 in   Unknown
9:56 AM 28.0 °F 24.2 °F 23.0 °F 81% 29.59 in - NNE 3.5 mph - N/A   Unknown
11:56 AM 30.9 °F - 24.1 °F 76% 29.58 in - Calm Calm - N/A   Unknown
12:56 PM 30.9 °F 27.5 °F 24.1 °F 76% 29.58 in - Variable 3.5 mph - N/A   Unknown
1:56 PM 30.0 °F - 23.0 °F 75% 29.60 in - Calm Calm - N/A   Unknown
2:56 PM 28.9 °F 18.6 °F 21.9 °F 75% 29.60 in - NNW 12.7 mph 19.6 mph N/A   Unknown
3:56 PM 28.0 °F 19.3 °F 21.0 °F 75% 29.63 in - NNW 9.2 mph - N/A   Unknown
4:56 PM 27.0 °F 17.3 °F 19.9 °F 75% 29.65 in - NNW 10.4 mph 16.1 mph N/A   Unknown
5:56 PM 25.0 °F - 18.0 °F 75% 29.67 in - Calm Calm - N/A   Unknown
6:56 PM 23.0 °F - 17.1 °F 78% 29.69 in - Calm Calm - N/A   Unknown
7:56 PM 24.1 °F - 17.1 °F 75% 29.70 in - Calm Calm - N/A   Unknown
8:56 PM 23.0 °F 17.0 °F 17.1 °F 78% 29.71 in - Variable 4.6 mph - N/A   Unknown
9:56 PM 23.0 °F - 16.0 °F 74% 29.70 in - Calm Calm - N/A   Unknown
10:56 PM 21.9 °F - 17.1 °F 82% 29.71 in - Calm Calm - N/A   Unknown
11:56 PM 19.0 °F - 15.1 °F 85% 29.73 in - Calm Calm - N/A   Unknown